ZHONGXING-1D

Last updated on Tue Jul 08 2025 00:02:48 GMT+0000 (Coordinated Universal Time)

1 49505U 21114A 25188.58939060 -.00000319 00000+0 00000+0 0 9998 2 49505 0.0624 236.3799 0001446 6.4796 25.2657 1.00273666 13375
UTC large
Height (km)
Speed (km/s)
/
Latitude / Longitude
Inclination (degrees)
Orbital Period (minutes)
Azimuth
Elevation
Range (km)
Doppler Factor

Next 0 passes for location: London (51.5072 / 0.1276)

Sorry there are no passes over London.